THOR ABLESTAR DEB, 130

Orbit data source: Space-Track

THOR ABLESTAR DEB, 130 is space debris in LEO originally from a launch on Thu, 29 Jun 1961 UTC launched from the Air Force Eastern Test Range (AFETR). Debris objects in space refer to the collection of defunct objects orbiting the Earth. Examples of debris include non-operational satellites, rocket bodies, and fragments generated from explosions, collisions, or faulty payload assembly.

Loading next visibility...
Identifier
130, 1961-015Q
Orbit
LEO
Country
Flag of USUS
Related business
Manufacturer
Unknown
Mission
Spacecraft
Bus & Motor
Unknown
Mass
Unknown
Launch date (UTC)
1961-06-29 (64 years ago)
Launch vehicle
Unknown
Launch site
Air Force Eastern Test Range (AFETR)
Object type
Payload
Rocket body
Debris
Shape & HBR
Unknown shape, 0.5 m
Radar Cross Section
Medium (>0.1 m² and <1 m²)

Expand to show TLE details & history
Last TLE update: 1 day ago

TLE from 1 day ago
0 THOR ABLESTAR DEB
1 00130U 61015Q   25340.49439083  .00000158  00000-0  15803-3 0  9995
2 00130  66.7718   9.6316 0079106  63.0540 297.8596 13.99370731284493
Epoch: 2025-12-06T11:51Z
TLE epoch observation values (Epoch: 2025-12-06T11:51:55.367Z)
Latitude
Longitude
116.12958°
Altitude
871.522 km
Speed
7.431 km/s
True Right ascension
00h 38m 31s
True Declination
0° 00' 00"
Sunlit
Object was in daylight at epoch
Visualization orbit readout
Latitude
Unknown
Longitude
Unknown
Altitude
Unknown
Speed
Unknown
Apparent Right ascension
Unknown
Apparent Declination
Unknown
Sunlit
N/A
Visualization observer readout
Local Sidereal Time
11:41:59
Azimuth
Unknown
Elevation
Unknown
Doppler factor
Unknown
Orbital elements
Apogee altitude
951.895 km
Perigee altitude
836.835 km
Semi-major axis
7,272.502 km
Eccentricity
0.00791
Inclination
66.7718°
RAAN
9.6316°
Arg. of periapsis
63.054°
True anomaly
297.05448°
Mean anomaly
297.8596°
Eccentric anomaly
297.45741°
Mean motion
3.49959 °/min
Orbital period
102.87 mins
BSTAR
0.00015803

Documentation

Showing up to 5 results
|